Regional Weather Roundup
Issued by NWS

Home | Current Version | Previous Version | Text Only | Print | Product List | Glossary Off
Versions: 1 2 3 4 5 6 7 8 9 10 11 12 13 14 15 16 17 18 19 20 21 22 23 24 25 26 27 28 29 30 31 32 33 34 35 36 37 38 39 40 41 42 43 44 45 46 47 48 49 50

000
ASUS43 KLSX 232007
RWRMO

WEATHER SUMMARY FOR MISSOURI
NATIONAL WEATHER SERVICE SPRINGFIELD MO
200 PM CST THU NOV 23 2017

NOTE: "FAIR" INDICATES FEW OR NO CLOUDS BELOW 12,000 FEET WITH NO
       SIGNIFICANT WEATHER AND/OR OBSTRUCTIONS TO VISIBILITY.
       CURRENT SKY AND/OR WEATHER CONDITIONS ARE NOT AVAILABLE FOR
       CHILLICOTHE AND FARMINGTON.

MOZ001>031-035>038-043-044-053-054-232100-
...NORTHERN AND WESTERN MISSOURI...

CITY           SKY/WX    TMP DP  RH WIND       PRES   REMARKS
KANSAS CTY INT SUNNY     61  35  37 W7        29.98F
KANSAS C DTWN  SUNNY     61  33  35 CALM      29.98F
LEE`S SUMMIT   SUNNY     61  34  36 SW5       29.99F
ST JOSEPH      SUNNY     61  35  37 CALM      29.97F
CHILLICOTHE      N/A     60  35  39 VRB3      29.96F
KIRKSVILLE     SUNNY     57  33  40 W7        29.95F

$$
MOZ066>068-077>081-088>096-101>105-232100-
...SOUTHWEST MISSOURI...

CITY           SKY/WX    TMP DP  RH WIND       PRES   REMARKS
SPRINGFIELD    SUNNY     63  30  28 W10       30.00F
JOPLIN         SUNNY     61  29  29 SW10      30.02F
BRANSON        MOSUNNY   59  27  29 W6        30.03F

$$
MOZ032>034-039>042-045>050-055>058-069>072-232100-
...CENTRAL MISSOURI...

CITY           SKY/WX    TMP DP  RH WIND       PRES   REMARKS
COLUMBIA       SUNNY     57  30  35 W8        29.96F
JEFFERSON CITY SUNNY     58  29  33 W9        29.97F
ROLLA          SUNNY     60  28  29 W10       29.98F
SEDALIA        SUNNY     58  33  39 SW8       29.99F
WHITEMAN AFB   SUNNY     59  33  37 W6        29.94F
WARRENSBURG    SUNNY     59  32  36 SW6       29.98F
OSAGE BEACH    SUNNY     60  28  29 VRB6      29.99F

$$
MOZ051-052-059>065-232100-
...EAST CENTRAL MISSOURI...

CITY           SKY/WX    TMP DP  RH WIND       PRES   REMARKS
ST LOUIS INTL  MOSUNNY   57  24  28 SW8       29.95F
SPIRIT OF STL  SUNNY     59  25  27 SW10      29.95F
ST CHARLES     SUNNY     56  23  27 W10       29.95F

$$
MOZ072>076-082>087-097>100-106>115-232100-
...SOUTH CENTRAL AND SOUTHEAST MISSOURI...

CITY           SKY/WX    TMP DP  RH WIND       PRES   REMARKS
CAPE GIRARDEAU SUNNY     50  29  44 S12       30.04F
FARMINGTON     SUNNY     57  26  30 S13       29.98F
POPLAR BLUFF   SUNNY     51  28  41 SW9       30.05F
WEST PLAINS    SUNNY     59  24  26 SW8       30.02F

$$


USA.gov is the U.S. government's official web portal to all federal, state and local government web resources and services.